Weather History for KMMH - July, 2013

Change the Weather History Date:

Sunday, July 7, 2013

  Actual Average (KBIH) Record (KBIH)
Temperature  
Mean Temperature 62 °F 77 °F  
Max Temperature 82 °F 98 °F 106 °F (1989)
Min Temperature 42 °F 56 °F 44 °F (2000)
Degree Days  
Heating Degree Days 3 0  
Month to date heating degree days 0  
Since 1 June heating degree days 19  
Since 1 July heating degree days 0  
Cooling Degree Days 0 12  
Month to date cooling degree days 79  
Year to date cooling degree days 361  
Since 1 June cooling degree days 293  
Growing Degree Days 12 (Base 50)    
Moisture  
Dew Point 25 °F    
Average Humidity 22    
Maximum Humidity 49    
Minimum Humidity 12    
Precipitation  
Precipitation 0.00 in 0.00 in 0.06 in (2001)
Month to date precipitation 0.03  
Year to date precipitation 3.10  
Snow  
Snow 0.00 in 0.00 in - ()
Month to date snowfall 0.0  
Since 1 June snowfall 0.0  
Since 1 July snowfall 0.0  
Snow Depth -    
Sea Level Pressure  
Sea Level Pressure 30.16 in    
Wind  
Wind Speed 8 mph (SW)    
Max Wind Speed 28 mph    
Max Gust Speed 43 mph    
Visibility 10 miles    
Events      
T = Trace of Precipitation, MM = Missing Value Source: NWS Daily Summary

Daily Weather History Graph

Daily Weather History Graph

Search for Another Location

Airport or City:

Trip Planner

Search our weather history database for the weather conditions in past years. The results will help you decide how hot, cold, wet, or windy it might be!

Date:

Astronomy

Jul. 07, 2013 Rise Set
Actual Time 5:40 AM PDT 8:19 PM PDT
Civil Twilight 5:10 AM PDT 8:50 PM PDT
Nautical Twilight 4:31 AM PDT 9:28 PM PDT
Astronomical Twilight 3:48 AM PDT 10:11 PM PDT
Moon 5:19 AM PDT (7/7) 7:48 PM PDT (7/7)
Length of Visible Light 15h 40m
Length of Day
14h 38m
Waning Crescent, 0% of the Moon is Illuminated
Jul 7
Waning Crescent
Jul 8
New
Jul 15
First Quarter
Jul 22
Full
Jul 29
Last Quarter

Hourly Weather History & Observations

Time (PDT) Temp. Windchill Dew Point Humidity Pressure Visibility Wind Dir Wind Speed Gust Speed Precip Events Conditions
12:15 AM 62.6 °F - 30.2 °F 30% 30.13 in 10.0 mi ESE 5.8 mph - N/A   Scattered Clouds
12:35 AM 62.6 °F - 26.6 °F 26% 30.13 in 10.0 mi Calm Calm - N/A   Scattered Clouds
12:55 AM 60.8 °F - 26.6 °F 27% 30.13 in 10.0 mi ENE 3.5 mph - N/A   Scattered Clouds
1:15 AM 59.0 °F - 24.8 °F 27% 30.13 in 10.0 mi Calm Calm - N/A   Clear
1:35 AM 60.8 °F - 30.2 °F 31% 30.13 in 10.0 mi Calm Calm - N/A   Clear
1:55 AM 55.4 °F - 28.4 °F 36% 30.13 in 10.0 mi Calm Calm - N/A   Clear
2:15 AM 53.6 °F - 26.6 °F 35% 30.14 in 10.0 mi NW 3.5 mph - N/A   Clear
2:35 AM 55.4 °F - 28.4 °F 36% 30.13 in 10.0 mi Calm Calm - N/A   Clear
2:55 AM 55.4 °F - 28.4 °F 36% 30.13 in 10.0 mi Calm Calm - N/A   Clear
3:15 AM 57.2 °F - 26.6 °F 31% 30.13 in 10.0 mi SSE 3.5 mph - N/A   Clear
3:35 AM 48.2 °F - 26.6 °F 43% 30.13 in 10.0 mi Calm Calm - N/A   Clear
3:55 AM 50.0 °F - 26.6 °F 40% 30.14 in 10.0 mi Calm Calm - N/A   Clear
4:15 AM 48.2 °F - 26.6 °F 43% 30.14 in 10.0 mi Calm Calm - N/A   Clear
4:35 AM 46.4 °F 44.3 °F 24.8 °F 43% 30.14 in 10.0 mi NE 4.6 mph - N/A   Clear
4:55 AM 46.4 °F - 26.6 °F 46% 30.14 in 10.0 mi Calm Calm - N/A   Clear
5:15 AM 46.4 °F - 24.8 °F 43% 30.15 in 10.0 mi Calm Calm - N/A   Clear
5:35 AM 42.8 °F 40.1 °F 24.8 °F 49% 30.15 in 10.0 mi West 4.6 mph - N/A   Clear
5:55 AM 44.6 °F 41.4 °F 24.8 °F 46% 30.15 in 10.0 mi North 5.8 mph - N/A   Clear
6:15 AM 44.6 °F 40.7 °F 26.6 °F 49% 30.16 in 10.0 mi West 6.9 mph - N/A   Clear
6:35 AM 46.4 °F 45.2 °F 26.6 °F 46% 30.16 in 10.0 mi NE 3.5 mph - N/A   Clear
6:55 AM 50.0 °F - 28.4 °F 43% 30.17 in 10.0 mi Calm Calm - N/A   Clear
7:15 AM 55.4 °F - 28.4 °F 36% 30.17 in 10.0 mi Calm Calm - N/A   Clear
7:35 AM 60.8 °F - 28.4 °F 29% 30.17 in 10.0 mi Calm Calm - N/A   Clear
7:55 AM 64.4 °F - 30.2 °F 28% 30.17 in 10.0 mi SE 3.5 mph - N/A   Clear
8:15 AM 66.2 °F - 32.0 °F 28% 30.18 in 10.0 mi SE 3.5 mph - N/A   Clear
8:35 AM 69.8 °F - 30.2 °F 23% 30.18 in 10.0 mi ESE 4.6 mph - N/A   Clear
8:55 AM 71.6 °F - 32.0 °F 23% 30.18 in 10.0 mi South 6.9 mph - N/A   Clear
9:15 AM 73.4 °F - 28.4 °F 19% 30.18 in 10.0 mi Calm Calm - N/A   Clear
9:35 AM 77.0 °F - 24.8 °F 14% 30.17 in 10.0 mi WSW 8.1 mph - N/A   Clear
9:55 AM 77.0 °F - 24.8 °F 14% 30.17 in 10.0 mi WSW 5.8 mph - N/A   Clear
10:15 AM 78.8 °F - 24.8 °F 14% 30.17 in 10.0 mi SSE 11.5 mph 16.1 mph N/A   Clear
10:35 AM 78.8 °F - 23.0 °F 13% 30.17 in 10.0 mi South 10.4 mph 18.4 mph N/A   Clear
10:55 AM 78.8 °F - 23.0 °F 13% 30.17 in 10.0 mi SW 6.9 mph 20.7 mph N/A   Clear
11:15 AM 78.8 °F - 23.0 °F 13% 30.17 in 10.0 mi WSW 9.2 mph 23.0 mph N/A   Clear
11:35 AM 80.6 °F - 23.0 °F 12% 30.17 in 10.0 mi SW 10.4 mph 18.4 mph N/A   Clear
11:55 AM 80.6 °F - 23.0 °F 12% 30.17 in 10.0 mi SSW 11.5 mph 24.2 mph N/A   Clear
12:15 PM 80.6 °F - 23.0 °F 12% 30.17 in 10.0 mi SSW 11.5 mph 21.9 mph N/A   Scattered Clouds
12:35 PM 80.6 °F - 24.8 °F 13% 30.16 in 10.0 mi SSW 15.0 mph 26.5 mph N/A   Scattered Clouds
12:55 PM 80.6 °F - 24.8 °F 13% 30.17 in 10.0 mi WSW 13.8 mph 21.9 mph N/A   Mostly Cloudy
1:15 PM 78.8 °F - 24.8 °F 14% 30.16 in 10.0 mi West 18.4 mph 27.6 mph N/A   Mostly Cloudy
1:35 PM 78.8 °F - 24.8 °F 14% 30.16 in 10.0 mi West 25.3 mph 36.8 mph N/A   Mostly Cloudy
1:55 PM 80.6 °F - 24.8 °F 13% 30.16 in 10.0 mi WNW 21.9 mph 31.1 mph N/A   Mostly Cloudy
2:15 PM 78.8 °F - 24.8 °F 14% 30.16 in 10.0 mi West 16.1 mph 28.8 mph N/A   Mostly Cloudy
2:35 PM 80.6 °F - 24.8 °F 13% 30.15 in 10.0 mi West 20.7 mph 32.2 mph N/A   Scattered Clouds
2:55 PM 82.4 °F - 24.8 °F 12% 30.15 in 10.0 mi West 20.7 mph 28.8 mph N/A   Clear
3:15 PM 80.6 °F - 24.8 °F 13% 30.15 in 10.0 mi West 25.3 mph 32.2 mph N/A   Clear
3:35 PM 82.4 °F - 24.8 °F 12% 30.15 in 10.0 mi West 18.4 mph 39.1 mph N/A   Clear
3:55 PM 82.4 °F - 26.6 °F 13% 30.15 in 10.0 mi West 25.3 mph 36.8 mph N/A   Clear
4:15 PM 80.6 °F - 24.8 °F 13% 30.15 in 10.0 mi West 18.4 mph 39.1 mph N/A   Clear
4:35 PM 80.6 °F - 26.6 °F 14% 30.14 in 10.0 mi West 18.4 mph 33.4 mph N/A   Clear
4:55 PM 80.6 °F - 26.6 °F 14% 30.14 in 10.0 mi WSW 21.9 mph 34.5 mph N/A   Clear
5:15 PM 80.6 °F - 26.6 °F 14% 30.13 in 10.0 mi SW 21.9 mph 28.8 mph N/A   Clear
5:35 PM 78.8 °F - 24.8 °F 14% 30.12 in 10.0 mi SW 16.1 mph 41.4 mph N/A   Clear
5:55 PM 78.8 °F - 24.8 °F 14% 30.12 in 10.0 mi SW 24.2 mph 33.4 mph N/A   Clear
6:15 PM 77.0 °F - 23.0 °F 13% 30.12 in 10.0 mi SW 25.3 mph 41.4 mph N/A   Clear
6:35 PM 77.0 °F - 24.8 °F 14% 30.13 in 10.0 mi SSW 18.4 mph 36.8 mph N/A   Clear
6:55 PM 75.2 °F - 24.8 °F 15% 30.13 in 10.0 mi SSW 17.3 mph 29.9 mph N/A   Clear
7:15 PM 75.2 °F - 23.0 °F 14% 30.14 in 10.0 mi SSW 25.3 mph 35.7 mph N/A   Clear
7:35 PM 73.4 °F - 23.0 °F 15% 30.14 in 10.0 mi SW 20.7 mph 33.4 mph N/A   Clear
7:55 PM 73.4 °F - 23.0 °F 15% 30.14 in 10.0 mi SSW 23.0 mph 38.0 mph N/A   Scattered Clouds
8:15 PM 71.6 °F - 23.0 °F 16% 30.15 in 10.0 mi SSW 27.6 mph 40.3 mph N/A   Scattered Clouds
8:35 PM 71.6 °F - 23.0 °F 16% 30.15 in 10.0 mi SSW 27.6 mph 42.6 mph N/A   Scattered Clouds
8:55 PM 69.8 °F - 21.2 °F 16% 30.17 in 10.0 mi SSW 19.6 mph 35.7 mph N/A   Clear
9:15 PM 69.8 °F - 21.2 °F 16% 30.18 in 10.0 mi SSW 19.6 mph 35.7 mph N/A   Clear
9:35 PM 69.8 °F - 21.2 °F 16% 30.19 in 10.0 mi SW 20.7 mph 35.7 mph N/A   Clear
9:55 PM 69.8 °F - 21.2 °F 16% 30.19 in 10.0 mi SW 23.0 mph 29.9 mph N/A   Clear
10:15 PM 69.8 °F - 21.2 °F 16% 30.19 in 10.0 mi SSW 21.9 mph 33.4 mph N/A   Clear
10:35 PM 68.0 °F - 21.2 °F 17% 30.19 in 10.0 mi SSW 21.9 mph 36.8 mph N/A   Clear
10:55 PM 68.0 °F - 21.2 °F 17% 30.20 in 10.0 mi SW 16.1 mph 27.6 mph N/A   Clear
11:15 PM 68.0 °F - 19.4 °F 16% 30.20 in 10.0 mi SSW 11.5 mph 25.3 mph N/A   Clear
11:35 PM 68.0 °F - 19.4 °F 16% 30.21 in 10.0 mi SSW 15.0 mph 25.3 mph N/A   Clear
11:55 PM 68.0 °F - 19.4 °F 16% 30.22 in 10.0 mi SSW 18.4 mph 28.8 mph N/A   Clear